#timestamp,LO_Frequency,Hit,StdDev 
1620770415.3,286047000.3,N
1620770435.2,286046999.9,N
1620770455.9,286046998.7,N
1620770475.7,286046998.2,N
1620770495.6,286047000.4,N
1620770515.4,286047000.8,N
1620770535.2,286047000.8,N
1620770555.1,286047000.8,N
1620770556.0,286047000.8,N
1620770575.8,286046998.9,N
1620770595.7,286046999.7,N
1620770615.5,286047000.9,N
1620770635.3,286047000.2,N
1620770655.2,286046999.9,N
1620770675.0,286047002.3,N
1620770675.9,286047002.3,N
1620770695.8,286047004.0,Y
1620770715.6,286047004.0,P
1620770735.4,286047003.9,N
1620770755.3,286047002.3,N
1620770775.1,286047002.0,N
1620770795.8,286047004.1,Y
1620770815.7,286047002.0,P
1620770835.5,286047004.0,P
1620770855.4,286047001.9,N
1620770875.2,286047000.4,N
1620770895.0,286047000.4,N
1620770895.9,286047000.4,N
1620770915.8,286047000.1,N
1620770935.6,286047000.7,N
1620770955.5,286047012.0,Y
1620770975.3,286047010.1,P
1620770995.1,286047006.3,N
1620771015.9,286047006.0,N
1620771035.7,286047004.2,N
1620771055.5,286047002.0,N
1620771075.4,286046999.7,N
1620771095.2,286047000.4,N
1620771115.0,286047000.7,N
1620771116.0,286047000.7,N
1620771135.8,286047000.8,N
1620771155.6,286046998.9,N
1620771175.5,286046997.0,N
1620771195.3,286046997.2,N
1620771215.1,286046997.2,N
1620771235.9,286046998.6,N
1620771255.7,286047000.9,N
1620771275.5,286047001.0,N
1620771295.4,286046998.4,N
1620771315.2,286047000.5,N
1620771335.1,286047000.2,N
1620771336.0,286047000.2,N
1620771355.8,286046998.9,N
1620771375.6,286046999.5,N
1620771395.5,286046998.0,N
1620771415.3,286046999.0,N
1620771435.1,286046998.9,N
1620771455.9,286046997.7,N
1620771475.7,286046996.9,N
1620771495.6,286046997.4,N
1620771515.4,286046996.9,N
1620771535.2,286047000.8,N
1620771555.1,286047000.8,N
1620771556.0,286047000.8,N
1620771575.8,286047000.8,N
1620771595.6,286047001.1,N
1620771615.5,286046998.6,N
1620771635.3,286046999.6,N
1620771655.2,286046995.0,Y
1620771675.9,286046998.9,P
1620771695.7,286046999.5,N
1620771715.6,286047000.8,P
1620771735.4,286046999.6,N
1620771755.2,286046996.8,Y
1620771775.1,286046999.6,P
1620771776.0,286046999.6,P
1620771795.8,286046999.2,P
1620771815.7,286046999.5,Y
1620771835.5,286046999.3,P
1620771855.3,286046999.2,P
1620771875.2,286046999.3,P
1620771895.0,286046998.6,Y
1620771895.9,286046998.6,P
1620771915.8,286047002.4,P
1620771965.6,286047002.5,E
1620771975.5,286047000.0,N
1620771995.4,286047000.9,P
1620772015.2,286047001.1,N
1620772035.1,286047000.9,N
1620772036.0,286047000.9,N
1620772055.8,286047000.8,N
1620772075.6,286047002.0,Y
1620772095.5,286046998.2,P
1620772115.3,286047000.7,N
1620772135.2,286047002.0,N
1620772155.9,286047000.9,N
1620772175.7,286047002.6,N
1620772195.6,286047002.2,N
1620772215.4,286047000.9,N
1620772235.2,286047002.8,N
1620772255.1,286046998.2,N
1620772256.0,286046998.2,N
1620772275.8,286046996.9,N
1620772295.7,286047001.2,N
1620772315.5,286046999.0,N
1620772335.3,286046998.5,N
1620772355.2,286046999.1,N
1620772375.0,286046999.8,N
1620772375.9,286046999.8,N
1620772395.8,286046999.9,N
1620772415.6,286047002.8,N
1620772435.4,286047000.3,N
1620772455.3,286047001.2,N
1620772475.1,286046999.2,N
1620772495.8,286047000.7,N
1620772545.7,286047000.3,E
1620772555.6,286047001.1,N
1620772575.5,286047000.8,P
1620772595.3,286046998.9,P
1620772615.1,286046996.6,Y
1620772635.9,286047001.2,P
1620772655.7,286046998.9,N
1620772675.6,286046998.3,N
1620772695.4,286046998.2,N
1620772715.2,286047000.9,N
1620772735.1,286047002.8,N
1620772736.0,286047002.8,N
1620772755.8,286047001.2,N
1620772775.6,286046998.5,N
1620772795.5,286046998.5,N
1620772815.3,286047000.3,N
1620772835.2,286047002.7,N
1620772855.9,286047001.1,N
1620772875.7,286046998.5,N
1620772895.6,286047000.2,N
1620772915.4,286047002.5,N
1620772935.2,286047001.1,N
1620772955.1,286047002.1,N
1620772956.0,286047002.1,N
1620772975.8,286047000.8,N
1620772995.7,286047000.0,N
1620773015.5,286046998.4,N
1620773035.3,286046998.6,N
1620773055.2,286046999.6,N
1620773075.0,286046999.2,N
1620773075.9,286046999.2,N
1620773095.7,286047001.2,N
1620773115.6,286047000.5,N
1620773135.4,286046999.4,N
1620773155.3,286046999.4,N
1620773175.1,286047000.4,N
1620773176.0,286047000.4,N
1620773195.8,286047000.3,N
1620773215.7,286046999.3,N
1620773235.5,286046996.9,N
1620773255.3,286046999.0,N
1620773275.2,286046998.6,N
1620773295.0,286046996.6,N
1620773295.9,286046996.6,N
1620773315.8,286047000.7,N
1620773335.6,286047000.9,N
1620773355.4,286046998.1,N
1620773375.3,286047000.6,N
1620773395.1,286046998.5,N
1620773415.9,286047001.2,N
1620773435.7,286047001.1,N
1620773455.5,286046998.3,N
1620773475.4,286047000.2,N
1620773495.2,286047000.2,N
1620773515.0,286047000.4,N
1620773515.9,286047000.4,N
1620773535.8,286047000.9,N
1620773555.6,286047002.3,N
1620773575.5,286047000.6,N
1620773595.3,286047002.0,N
1620773615.1,286047001.8,N
1620773635.9,286047002.2,N
1620773655.7,286047000.0,N
1620773675.6,286047002.3,N
1620773695.4,286047001.2,N
1620773715.2,286046997.4,N
1620773735.1,286046999.1,N
1620773736.0,286046999.1,N
1620773755.8,286047000.0,N
1620773775.7,286047002.8,N
1620773795.5,286047000.1,N
1620773815.3,286047002.4,N
1620773835.2,286047002.6,N
1620773855.0,286047004.4,N
1620773855.9,286047004.4,N
1620773875.8,286047002.3,N
1620773895.6,286047000.1,N
1620773915.4,286047002.8,N
1620773935.3,286047002.1,N
1620773955.1,286047001.4,N
1620773975.8,286047002.5,N
1620773995.7,286047001.0,N
